Location: ????
(30.1475°N, 31.1342°E)
Time: 08:03:37
(UTC+00:00)

Cosmos 1833 Rocket - Pass Details

Date: 27 September 2022
Orbit: 833 x 839 km, 71.0° (Epoch: 28 November)

Event Time Altitude Azimuth Distance (km) Brightness Sun altitude
Exits shadow 00:56:36 33° 84° (E) 1,381 4.2 -36.7°
Drops below altitude 10° 01:00:44 10° 40° (NE) 2,453 5.7 -35.9°
Sets 01:03:22 0° 31° (NNE) 3,391 6.5 -35.4°
